World > North America > United States > North Dakota

Belcourt, North Dakota Regional Weather

Lat: 48.84N, Lon: 99.74W
Wx Zone: NDZ005Web Search

Helpful Tip: Type the letters wx in the search engine next time you need to find us.

Feedback


°F Click to change Belcourt hourly weather to Imperial units.Click to change Belcourt hourly weather to Metric units. °C
Belcourt Weather Map
UTC Time: 4/16/2021, 15:20
Your Time:

Belcourt, ND Regional Weather

Expires:202104161600;;643188
ASUS43 KBIS 161510
RWRND 

NORTH DAKOTA REGIONAL WEATHER ROUNDUP
NATIONAL WEATHER SERVICE BISMARCK ND
1000 AM CDT FRI APR 16 2021

NOTE: "FAIR" INDICATES FEW OR NO CLOUDS BELOW 12,000 FEET WITH NO
SIGNIFICANT WEATHER AND/OR OBSTRUCTIONS TO VISIBILITY.



NDZ004>008-012>016-024-026-027-054-161600-
NORTHEAST NORTH DAKOTA
  
CITY           SKY/WX    TMP DP  RH WIND       PRES   REMARKS
GRAND FORKS    PTSUNNY   40  28  62 N13       30.20F                  
GRND FRKS AFB  CLOUDY    40  32  72 N15       30.21S                  
DEVILS LAKE    CLOUDY    37  27  67 N9        30.23F                  
$$
 

SKY/WX - Weather  TMP - Temperature  DP - Dew Point  RH - Relative Humidity
WIND - Wind Direction/Speed PRES - Barometric Pressure VSB - Visibility
WCI - Wind Chill Index E13G22 Wind - East Wind 13 mph/Gusts of 22 mph